weather.gov     
National Weather Service

Other Surface Observations
NWS Homepage
This page is being discontinued on March 12, 2014.
The same data is available at this site. Please update your bookmarks.
Thank you, and we apologize for the inconvenience.
Please send an email to SR-SRH.Webmaster@noaa.gov with any concerns.


Current Version
Previous Version:    01  02  03  04  05  06  07  08  09  10  11  12  13  14  15  16  17  18  19  20  21  22  23  24  25  26  27  28  29  30  
   31  32  33  34  35  36  37  38  39  40  41  42  43  44  45  46  47  48  49  50  51  52  53  54  55  56  57  58  59  60  
[Printable]
193
SXUS55 KTWC 250116
OSOTWC

WEATHER ROUNDUP FOR SOUTHEAST ARIZONA
NATIONAL WEATHER SERVICE TUCSON AZ
615 PM MST THU APR 24 2014

AZZ504>506-514-250215-
LOCATION       SKY/WX    TMP DP  RH WIND       PRES   REMARKS
TUCSON         SUNNY     86  10   6 NW9       29.90S
DAVIS-MONTHAN  SUNNY     85  15   7 NW10      29.89S
CHILDRENS PARK N/A       86 N/A N/A NW6               PIMA CO DEQ
ALVERNON/22ND  N/A       87 N/A N/A W6                PIMA CO DEQ
CHERRY/GLENN   N/A      N/A N/A N/A N/A               PIMA CO DEQ
TANGERINE      N/A       85 N/A N/A W8                PIMA CO DEQ
CONTL RANCH    N/A       88  19   8 W8                PIMA CO DEQ
GRANT/1ST      N/A       87  15   7 NW8               PIMA CO DEQ
CRAYCROFT/22ND N/A       86  17   8 W12               PIMA CO DEQ
GOLFLINKS/KOLB N/A      N/A N/A N/A N/A               PIMA CO DEQ
AJO/12TH       N/A       87  15   7 W8                PIMA CO DEQ
SAGUARO EAST   N/A       86  18   8 W8                PIMA CO DEQ
FAIRGROUNDS    N/A       85 N/A N/A W11               PIMA CO DEQ
SAGUARO        N/A       87  16   7 NW9G17            *SABINO CYN
SAN CARLOS     N/A       85  11   6 SW10G17           *SAN CARLOS
GREEN VALLEY   N/A       84  17   8 SW9               PIMA CO DEQ
HORSE CAMP CYN N/A       81  11   7 SW10G24           *ARAVAIPA CYN
RINCON MTNS    N/A       60   9  13 SW4G14            *NR MANNING CAMP
$$

AZZ509>511-250215-
LOCATION       SKY/WX    TMP DP  RH WIND       PRES   REMARKS
SAFFORD        SUNNY     85   7   5 N8        29.87S
STRAY HORSE    N/A       63   1   8 SW8G15            *
TRAIL CABIN    N/A       71   7   8 SW5G13            *N OF GRANVILLE
BLACK HILLS    N/A       84  10   6 NW5G16            *N OF FT THOMAS
DRY LAKE       N/A       63   8  11 SW4G11            *NATANES MTNS
NOON CREEK     N/A       76   8   7 NE3G10            *PINALENO MTNS
COLUMBINE      N/A       56   8  14 S8G19             *PINALENO MTNS
GUTHRIE        N/A       72   7   8 SW10G20           *SW OF GUTHRIE
$$

AZZ502-503-513-250215-
LOCATION       SKY/WX    TMP DP  RH WIND       PRES   REMARKS
NOGALES        SUNNY     80  13   8 SW15      29.97S
SELLS          N/A       86  18   8 W11G20            *
SASABE         N/A       84  13   7 W13G21            *ALTAR VLY
HOPKINS        N/A       74  14  10 SW9G20            *SANTA RITA MTNS
CARR CYN       N/A       73  15  11 S5G14             *W OF HEREFORD
$$

AZZ507-508-512-250215-
LOCATION       SKY/WX    TMP DP  RH WIND       PRES   REMARKS
SIERRA VISTA   NOT AVBL
DOUGLAS        SUNNY     82   8   6 W15       29.96S
EMPIRE MTNS    N/A       77  14   9 W11G21            *LAS CIENEGAS NCA
MULESHOE RANCH N/A       79   6   6 W9G21             *PRESERVE
HEADQUARTERS   N/A       76  13   9 W9G17             *CHIRICAHUA MTNS
$$

.............................NOTES.............................
THIS IS AN AUTOMATED COLLECTIVE WITH MINIMAL QUALITY CONTROL.
PIMA CO DEQ SITES HAVE NONSTANDARD WIND SENSOR HEIGHTS.
PIMA CO DEQ SITES DO NOT REPORT WIND GUSTS.
* INDICATES WIND SENSORS LOCATED AT 20 FEET INSTEAD OF 33 FEET.
..............................KEY..............................
SKY/WX - SKY CONDITION/WEATHER
TMP    - TEMPERATURE IN FAHRENHEIT
DP     - DEWPOINT IN FAHRENHEIT
RH     - RELATIVE HUMIDITY IN PERCENT
WIND   - DIRECTION AND SPEED IN MILES PER HOUR (MPH)
VRB    - VARIABLE WIND DIRECTION
PRES   - MEAN SEA LEVEL PRESSURE IN INCHES OF MERCURY
         F - FALLING PRESSURE   R - RISING PRESSURE
         S - STEADY PRESSURE
VSB    - VISIBILITY IN MILES
HX     - HEAT INDEX IN FAHRENHEIT
WCI    - WIND CHILL INDEX IN FAHRENHEIT
N/A    - NOT AVAILABLE
AFB    - AIR FORCE BASE
         DAVIS-MONTHAN IS DAVIS-MONTHAN AIR FORCE BASE
CYN    - CANYON
MTNS   - MOUNTAINS
NCA    - NATIONAL CONSERVATION AREA
NR     - NEAR
VLY    - VALLEY
CONTL  - CONTINENTAL
PIMA CO DEQ - PIMA COUNTY DEPT OF ENVIRONMENTAL QUALITY




U.S. Dept. of Commerce
NOAA National Weather Service
1325 East West Highway
Silver Spring, MD 20910
E-mail: w-nws.webmaster@noaa.gov
Page last modified: May 16, 2007
NATIONAL WEATHER SERVICE: for Safety, for Work, for Fun - FOR LIFE